Regional Weather Roundup
Issued by NWS

Home | Current Version | Previous Version | Graphics & Text | Print | Product List | Glossary Off
Versions: 1 2 3 4 5 6 7 8 9 10 11 12 13 14 15 16 17 18 19 20 21 22 23 24 25 26 27 28 29 30 31 32 33 34 35 36 37 38 39 40 41 42 43 44 45 46 47 48 49 50

000
ASUS43 KMPX 030110
RWRMN
WEATHER ROUNDUP FOR MINNESOTA
NATIONAL WEATHER SERVICE TWIN CITIES/CHANHASSEN MN
700 PM CST MON MAR 02 2015


NOTE: "FAIR" INDICATES FEW OR NO CLOUDS BELOW 12,000 FEET WITH NO
SIGNIFICANT WEATHER AND/OR OBSTRUCTIONS TO VISIBILITY. N/A MEANS
CURRENT SKY AND/OR WEATHER CONDITIONS ARE NOT AVAILABLE.

MNZ060>063-068>070-030200-
   Twin Cities Metro

CITY           SKY/WX    TMP DP  RH WIND       PRES   REMARKS
TWIN CITIES    CLOUDY    22   9  57 SE13      30.20F WCI  10
ST PAUL        CLOUDY    22   9  57 S13       30.22F WCI  10
CRYSTAL        CLOUDY    24   9  52 SE12      30.17F WCI  13
BLAINE         CLOUDY    25  10  54 S14       30.19F WCI  13
LAKEVILLE      CLOUDY    19  12  73 SE7       30.20F WCI  10
EDEN PRAIRIE   CLOUDY    23  10  57 SE13      30.18F WCI  11
SOUTH ST PAUL  CLOUDY    23   9  54 S8        30.22F WCI  14
LAKE ELMO      CLOUDY    23  10  58 S12       30.22F WCI  12
$$
MNZ001>005-007-008-013>017-022>024-027-028-030200-
   Northwest Minnesota

CITY           SKY/WX    TMP DP  RH WIND       PRES   REMARKS
BEMIDJI        CLOUDY    25  11  55 S14       29.97F WCI  13
HALLOCK        PTCLDY    23  16  74 S23       29.84F WCI   7
ROSEAU         CLOUDY    27  12  54 S17       29.87F WCI  14
WARROAD        CLOUDY    25  10  54 S10       29.89F WCI  15
THIEF RVR FALL CLOUDY    25  16  68 S20       29.89F WCI  11
CROOKSTON      CLEAR     25  18  74 S24G30    29.90F WCI   9
FOSSTON        CLOUDY    25  12  58 SE16G22   29.91F WCI  12
DETROIT LAKES  MOCLDY    27  18  69 S18       29.97F WCI  13
MOORHEAD       CLOUDY    28  19  69 S21G26    29.95F WCI  15
PARK RAPIDS    CLOUDY    25  10  53 S13       29.99F WCI  14
MAHNOMEN       CLOUDY    25  15  65 S16G22    29.93F WCI  12
$$
MNZ006-009>011-018-025>026-030200-
   North Central Minnesota

CITY           SKY/WX    TMP DP  RH WIND       PRES   REMARKS
BAUDETTE       CLEAR     22   6  50 S14       29.91F WCI   9
FLAG ISLAND    CLOUDY    18  10  73 S21       29.88F WCI   1
INTL FALLS     CLEAR     24   4  42 S6        29.99F WCI  17
WASKISH        CLOUDY    25   7  46 SE8G17    29.94F WCI  16
BIG FORK       PTCLDY    23   5  46 S10       30.01F WCI  12
LONGVILLE      CLOUDY    23   9  54 S14G21    30.03F WCI  11
GRAND RAPIDS   CLOUDY    21   7  53 S16       30.04F WCI   7
CRANE LAKE     CLEAR     18   3  53 CALM      30.05F
ORR            CLEAR     21   0  39 S12       30.01S WCI   9
COOK           CLEAR     21   1  42 S3        30.05S
WALKER         CLOUDY    24   7  50 S9G20     30.00F WCI  14
$$
MNZ012-019>021-037-030200-
   Northeast Minnesota

CITY           SKY/WX    TMP DP  RH WIND       PRES   REMARKS
DULUTH         FAIR      22   4  46 S10       30.09F WCI  11
ELY            CLEAR     21   3  45 S10       30.06F WCI  10
HIBBING        CLEAR     22   3  44 S9        30.06F WCI  12
EVELETH        CLEAR     23   5  46 S9        30.08F WCI  13
DULUTH HARBOR  CLEAR     25   5  42 S10       30.17S WCI  15
TWO HARBORS    CLEAR     25   9  50 S8        30.11F WCI  16
SILVER BAY     CLEAR     19   7  58 S5        30.11F WCI  13
GRAND MARAIS     N/A     27  16  63 SW18      30.16F WCI  14
G MARAIS ARPRT CLEAR     16   9  73 S8        30.08F WCI   5
$$
MNZ029>031-032-039>041-046>048-054>057-064-030200-
   West Central Minnesota

CITY           SKY/WX    TMP DP  RH WIND       PRES   REMARKS
FERGUS FALLS   CLOUDY    25  16  68 S21G29    30.02F WCI  10
WHEATON        CLOUDY    25  18  74 SE20G26   30.01R WCI  11
MORRIS         CLOUDY    27  18  69 SE22      30.01F WCI  12
ALEXANDRIA     CLOUDY    23  14  68 S18       30.03F WCI   9
ELBOW LAKE     CLOUDY    24  17  74 SE22G28   30.00S WCI   9
WADENA         CLOUDY    23  14  68 S16G22    30.01F WCI  10
GLENWOOD       CLOUDY    23  16  74 SE16G25   30.06F WCI  10
APPLETON       CLOUDY    27  18  69 SE15G24   30.03F WCI  15
BENSON         CLOUDY    25  16  68 S14G21    30.06F WCI  13
ORTONVILLE     CLOUDY    27  18  69 SE14      30.00F WCI  15
MADISON        CLOUDY    28  19  69 S18       30.02F WCI  16
WILLMAR        CLOUDY    25  18  74 SE16      30.09F WCI  12
$$
MNZ033>034-036-042>043-049>051-058-059-030200-
   Central Minnesota

CITY           SKY/WX    TMP DP  RH WIND       PRES   REMARKS
ST CLOUD       CLOUDY    23   9  55 S13       30.12F WCI  11
SAUK CENTRE    CLOUDY    23  13  66 SE15      30.07F WCI  10
PAYNESVILLE    CLOUDY    21  12  67 E12G17    30.09F WCI   9
AITKIN         CLOUDY    25   9  50 SE10      30.07F WCI  15
PINE RIVER     CLOUDY    23  10  58 SE12G18   30.07F WCI  12
BRAINERD       CLOUDY    23  10  57 S16G22    30.07F WCI  10
STAPLES        CLOUDY    23  10  58 S14G20    30.04F WCI  11
LITTLE FALLS   CLOUDY    25  12  58 S14       30.09F WCI  13
LITCHFIELD     CLOUDY    25  16  68 SE10      30.12F WCI  15
BUFFALO        CLOUDY    24  10  56 SE9G16    30.16F WCI  14
MAPLE LAKE     CLOUDY    24  14  64 SE9G17    30.14F WCI  15
$$
MNZ037-044-045-052-053-030200-
   East Central Minnesota

CITY           SKY/WX    TMP DP  RH WIND       PRES   REMARKS
PRINCETON      CLOUDY    25  10  54 SE12G17   30.14F WCI  14
MORA           PTCLDY    25   9  50 S10       30.16F WCI  15
CAMBRIDGE      CLOUDY    25  10  54 SE9       30.14F WCI  15
RUSH CITY      CLOUDY    22   8  53 S15       30.17F WCI   9
MOOSE LAKE     PTCLDY    21   3  45 CALM      30.11F
HINCKLEY       CLOUDY    23  10  58 S10       30.16S WCI  12
CLOQUET        CLEAR     21   1  42 S6        30.10F WCI  14
MCGREGOR       CLOUDY    23   9  54 S13       30.10F WCI  11
$$
MNZ071>073-080-081-089-090-097-098-030200-
   Southwest Minnesota

CITY           SKY/WX    TMP DP  RH WIND       PRES   REMARKS
MONTEVIDEO     CLOUDY    25  18  74 S14G23    30.07F WCI  13
GRANITE FALLS  CLOUDY    26  19  76 SE17      30.09F WCI  12
CANBY          CLOUDY    28  19  70 SE14      30.02F WCI  17
MARSHALL       CLOUDY    27  18  69 S16       30.06F WCI  14
REDWOOD FALLS  CLOUDY    25  19  78 SE17      30.09F WCI  12
OLIVIA         CLOUDY    23  18  80 SE14      30.09F WCI  11
PIPESTONE      CLOUDY    27  19  74 S14       30.01F WCI  15
WINDOM         CLOUDY    25  19  80 SE12      30.09F WCI  14
WORTHINGTON    CLOUDY    25  18  74 SE13      30.08F WCI  13
JACKSON        CLOUDY    27  19  74 SE13      30.10F WCI  16
TRACY          CLOUDY    27  20  76 S15G21    30.05F WCI  15
SLAYTON        CLOUDY    25  19  77 SE14      30.05F WCI  13
$$
MNZ065>067-074>077-082>085-091>093-030200-
   South Central Minnesota

CITY           SKY/WX    TMP DP  RH WIND       PRES   REMARKS
MANKATO        CLOUDY    21  14  73 SE15      30.17F WCI   8
NEW ULM        CLOUDY    23  18  80 SE13G18   30.13F WCI  11
ST JAMES       CLOUDY    25  19  80 SE16      30.14F WCI  12
FAIRMONT       CLOUDY    25  18  74 SE15      30.13F WCI  12
GLENCOE        CLOUDY    24  16  71 SE14      30.14F WCI  12
FARIBAULT      CLOUDY    21  12  68 S9        30.20F WCI  11
OWATONNA       CLOUDY    19  12  73 S12       30.20S WCI   7
WASECA         CLOUDY    19  14  79 SE9       30.20F WCI   9
ALBERT LEA     CLOUDY    19  16  86 SE12      30.19F WCI   7
$$
MNZ078>079-086>088-094>096-030200-
   Southeast Minnesota

CITY           SKY/WX    TMP DP  RH WIND       PRES   REMARKS
ROCHESTER      CLOUDY    19  10  68 S13       30.21F WCI   6
RED WING       CLOUDY    23   9  54 S7        30.24F WCI  15
STANTON        CLOUDY    22  11  64 S7        30.20F WCI  13
DODGE CENTER   CLOUDY    19  14  79 SE10      30.19F WCI   8
WINONA         CLOUDY    28  12  50 CALM      30.27S
AUSTIN         CLOUDY    19  10  68 S6        30.21F WCI  11
PRESTON        CLOUDY    19  11  69 S8        30.23F WCI   9
$$
ABBREVIATIONS USED IN REMARKS
   TC - TEMPERATURES IN CELSIUS
  WCI - WIND CHILL INDEX
   HX - HEAT INDEX
  VSB - VISIBILITY
$$



USA.gov is the U.S. government's official web portal to all federal, state and local government web resources and services.